Simultaneous Nadir Overpasses (SNOs) Predictions

Prediction of SNOs between LANDSAT-8 and NOAA-19 Satellite Orbit:

Table of predicted SNOs for the next 14.0 days since TLE Epoch: 12/15/2018
Index Date (LANDSAT-8) Time (LANDSAT-8) Lat,Lon (LANDSAT-8) SZA (LANDSAT-8 ) Date (NOAA-19) Time (NOAA-19) Lat,Lon (NOAA-19) SZA (NOAA-19 ) Distance(km) Time Diff (sec)
1 12/15/2018 05:41:24 78.27, 111.43 102.00 12/15/2018 05:41:15 78.26, 111.34 101.99 2.17 9
2 12/15/2018 06:30:54 -78.15, -81.53 78.15 12/15/2018 06:32:05 -78.09, -80.36 78.11 27.29 71
3 12/17/2018 11:15:08 -78.28,-151.96 77.91 12/17/2018 11:14:39 -78.25,-151.88 77.93 3.32 29
4 12/17/2018 12:04:35 78.23, 15.44 102.03 12/17/2018 12:05:45 78.24, 15.45 102.06 1.13 70
5 12/19/2018 16:48:51 78.27, -55.43 102.13 12/19/2018 16:48:16 78.29, -55.42 102.14 2.21 35
6 12/19/2018 17:38:19 -78.24, 112.05 77.92 12/19/2018 17:39:10 -78.27, 112.00 77.88 3.36 51
7 12/21/2018 22:22:35 -78.28, 41.20 77.86 12/21/2018 22:21:40 -78.28, 41.37 77.86 3.80 55
8 12/21/2018 23:12:01 78.27,-151.21 102.13 12/21/2018 23:12:46 78.27,-151.36 102.14 3.24 45
9 12/24/2018 03:56:17 78.31, 137.92 102.15 12/24/2018 03:55:16 78.29, 137.96 102.12 2.27 61
10 12/24/2018 04:45:45 -78.29, -54.58 77.89 12/24/2018 04:46:10 -78.26, -54.54 77.91 3.14 25
11 12/26/2018 09:29:56 -78.54,-124.35 77.64 12/26/2018 09:28:49 -78.60,-127.29 77.76 65.16 67
12 12/26/2018 10:19:28 78.27, 41.92 102.02 12/26/2018 10:19:46 78.28, 41.99 102.04 2.13 18
13 12/28/2018 15:53:12 -78.29, 138.58 78.07 12/28/2018 15:53:11 -78.29, 138.66 78.07 1.96 1




NCC Satellite Simultaneous Nadir Overpasses (SNOs) Prediction Service
